Wind_Speed
22 22 21 21 20 20 20 20 19 20 21 20 19 19 19 18 17 16 15 15 14 14 13 13 12 13 12 12 11 10 10 10 10 9 9 8 8 8 9 10 10 10 10 11
22 23 23 22 22 22 21 21 21 21 22 21 20 20 19 18 17 17 17 16 15 15 15 14 13 14 13 13 13 12 12 11 11 11 10 10 9 10 10 10 11 10 11 10
23 23 23 23 22 22 22 21 21 22 21 21 20 20 20 18 18 18 18 17 17 16 16 15 15 15 15 13 13 13 13 12 12 12 11 11 11 11 11 12 12 11 11 11
23 23 23 24 24 23 23 22 21 21 20 21 21 19 20 18 18 18 18 19 18 17 17 16 15 15 15 14 14 13 13 13 13 13 12 12 12 12 12 12 12 11 12 12
23 23 24 24 24 24 23 22 22 21 21 21 21 20 19 19 18 19 19 19 20 19 19 18 17 17 17 16 16 15 15 14 14 14 14 13 13 12 12 12 12 12 11 12
23 23 24 24 24 23 23 23 23 22 22 23 22 22 20 19 18 19 20 20 21 20 20 20 20 19 19 18 17 17 16 16 16 15 15 14 13 13 13 12 13 13 13 13
22 23 23 23 23 24 24 23 22 22 23 23 23 23 21 20 19 19 20 20 20 21 21 21 21 21 20 19 18 18 18 17 17 16 16 15 15 14 14 13 14 14 14 14
22 23 24 24 24 24 24 23 22 22 22 21 24 23 22 20 19 19 20 21 21 21 21 21 21 21 21 20 19 19 19 19 18 17 17 16 16 15 15 15 15 16 16 16
22 23 24 24 24 24 24 24 23 22 21 20 23 24 22 20 20 20 21 21 21 21 21 22 22 22 22 21 21 20 20 20 19 19 18 17 17 17 16 16 16 16 17 17
23 24 24 23 24 24 24 24 24 23 23 23 23 24 24 21 20 20 21 22 23 22 22 21 22 22 22 22 22 22 21 22 22 21 20 19 18 18 17 18 18 18 19 19
21 22 23 23 23 23 24 25 25 25 25 23 22 23 24 22 21 21 22 23 23 23 23 22 21 22 22 22 22 22 23 23 23 22 21 20 19 19 19 20 20 20 21 21
22 22 22 23 23 24 25 25 26 26 26 26 23 23 24 23 21 22 23 23 23 23 23 23 23 23 23 23 23 23 23 24 23 23 22 21 21 21 21 21 21 21 22 22
23 23 23 22 23 24 25 26 26 26 26 26 24 24 25 23 22 22 23 22 23 22 22 22 23 23 23 23 24 24 24 23 23 23 23 22 22 22 22 22 22 22 23 23
23 24 23 22 21 23 24 25 26 26 26 26 26 25 25 23 22 22 22 22 22 22 22 23 23 24 24 24 24 24 24 24 24 24 24 24 24 24 23 23 23 23 24 24
23 24 24 24 24 24 24 25 25 26 26 26 26 27 26 25 23 23 22 22 22 22 23 24 23 24 24 25 25 25 24 24 24 25 25 25 26 25 25 24 24 24 25 25
23 24 25 25 25 25 25 25 25 26 26 27 28 28 27 26 24 23 23 23 22 23 24 24 24 25 25 25 26 26 25 25 25 25 26 26 27 27 26 25 25 25 25 25
24 24 25 25 25 26 26 26 26 26 27 28 28 28 28 26 25 24 24 24 23 24 25 25 26 26 25 25 25 25 25 25 26 26 27 27 27 27 27 27 26 26 26 27
24 25 25 25 26 27 26 26 26 27 27 28 28 28 27 27 25 24 24 24 24 24 25 25 25 26 26 25 25 25 26 26 26 27 27 28 28 28 27 27 26 27 27 27
24 25 26 26 26 26 26 26 26 26 27 27 27 27 27 26 25 25 25 25 24 24 24 25 25 25 25 26 25 26 26 27 27 27 27 27 27 27 27 27 26 26 26 26
23 24 26 26 26 25 27 25 25 25 26 26 26 26 26 25 25 25 25 25 25 24 24 24 25 24 24 24 24 24 25 26 27 27 27 26 26 26 26 26 27 27 28 27
24 24 25 25 26 25 27 25 24 25 25 25 25 25 26 26 25 25 25 25 25 25 24 23 23 24 24 24 24 24 24 25 25 26 26 26 26 26 26 26 27 27 27 27
24 24 24 25 25 25 26 24 25 26 25 25 25 25 25 25 25 24 24 24 24 24 24 24 24 24 24 24 25 25 25 25 25 25 25 26 26 26 26 26 26 27 27 27
24 24 25 25 25 26 25 25 25 25 25 25 24 24 25 25 25 25 24 24 24 23 23 23 23 24 25 25 25 24 24 25 25 25 25 25 26 26 26 27 27 26 26 26
23 24 24 24 25 25 25 24 25 25 25 25 25 25 25 25 25 25 25 25 24 23 23 24 24 24 24 25 25 25 25 25 25 25 25 25 25 25 25 25 25 25 25 25
23 23 24 24 25 25 24 25 25 25 25 25 25 25 25 25 25 25 25 25 25 24 24 24 25 25 25 26 25 25 25 25 25 24 25 25 25 24 24 24 24 24 24 25
23 23 24 24 24 24 24 24 24 24 25 25 25 25 26 26 26 25 25 25 25 25 25 25 26 26 26 26 25 25 24 23 23 24 24 25 26 25 25 25 25 25 24 25
Wind_Direction
236 237 238 239 238 239 241 243 246 252 256 257 258 258 255 255 255 258 260 262 262 262 266 266 270 276 278 279 280 279 280 283 283 288 291 291 292 290 290 281 272 267 261 259
237 238 238 239 239 240 241 244 247 251 255 257 259 260 260 259 256 258 259 260 261 262 264 269 269 271 275 275 276 277 274 276 281 284 285 285 287 289 291 287 273 266 263 260
237 238 239 239 239 240 243 244 248 253 257 260 262 261 260 258 257 256 257 256 257 259 262 266 266 267 269 271 274 273 268 271 274 279 282 283 286 286 286 280 271 267 265 264
237 239 239 239 239 241 242 244 248 254 256 260 259 258 258 258 257 256 255 255 255 257 259 262 264 264 264 266 267 268 269 270 272 276 279 284 286 286 284 282 271 266 268 270
237 238 239 239 240 242 242 245 249 253 257 259 259 257 258 259 257 256 256 255 255 255 257 260 262 261 261 263 265 266 269 269 272 276 280 283 283 285 282 281 273 269 271 273
239 240 240 240 240 242 244 245 249 253 256 259 258 259 260 261 260 256 256 255 255 254 254 258 261 260 259 262 265 266 267 269 272 274 275 278 280 281 279 278 274 270 270 271
241 242 242 241 239 240 242 244 249 252 254 259 259 259 261 262 261 258 256 256 254 254 254 257 260 260 260 262 264 263 265 269 270 273 274 274 278 277 275 275 273 270 269 269
242 243 243 241 240 242 243 244 246 250 254 257 261 260 262 262 261 259 257 256 255 255 255 256 258 259 260 262 263 262 263 266 268 270 274 275 275 273 272 272 272 271 271 270
243 244 245 244 243 242 243 243 244 250 252 255 260 263 261 261 262 260 258 257 256 256 257 255 255 256 258 260 261 262 262 265 266 268 272 274 271 271 271 271 272 272 273 273
244 246 247 245 244 242 242 244 245 247 252 256 260 263 265 263 262 261 259 257 257 257 257 257 255 255 256 259 260 262 264 265 265 268 270 271 270 270 272 272 273 275 275 274
243 245 245 246 243 243 243 244 244 247 250 256 262 264 265 265 264 262 260 258 257 256 257 258 256 256 257 259 261 263 264 264 265 268 269 270 271 271 273 273 273 275 275 275
242 244 245 246 246 245 246 246 246 248 252 255 259 265 266 265 265 263 261 260 258 257 256 256 256 257 258 259 260 262 264 263 264 267 269 271 272 271 271 273 274 275 275 275
244 244 245 248 250 249 249 248 247 248 252 255 259 262 267 268 265 263 261 259 257 258 257 256 257 257 258 260 261 262 264 265 266 267 268 269 270 271 271 273 276 277 275 274
246 244 244 244 248 249 250 250 250 251 252 255 257 260 264 267 265 263 261 258 258 258 259 259 258 256 256 259 261 263 264 265 266 266 266 268 269 270 271 273 275 275 276 275
248 248 247 246 247 250 251 250 251 251 252 255 257 259 262 264 265 265 262 260 258 257 258 259 258 258 257 260 262 263 264 266 266 265 266 267 269 269 271 273 273 273 274 274
249 249 248 249 250 251 252 251 251 251 252 255 257 258 261 264 265 263 260 258 259 258 258 257 258 259 260 261 263 264 265 266 266 266 268 268 269 269 270 272 273 272 273 274
250 250 249 251 251 252 254 253 253 254 254 255 257 259 261 262 262 261 259 258 259 259 258 258 259 260 261 263 264 264 264 266 267 268 269 269 270 271 270 271 272 272 272 274
252 251 251 252 252 254 256 255 254 254 255 256 256 259 261 262 261 261 259 259 259 258 257 258 259 260 261 263 264 265 265 267 268 268 268 267 268 269 270 271 271 272 272 272
253 252 252 252 254 256 256 256 256 256 256 256 256 258 260 261 261 259 258 258 260 260 258 258 260 260 261 263 265 265 267 269 268 268 269 269 268 269 270 270 271 272 272 273
254 253 252 252 253 255 257 257 257 257 257 256 257 258 258 260 260 258 258 258 260 262 259 258 257 259 261 265 266 267 268 270 268 266 267 267 268 269 269 270 271 272 273 274
255 254 252 252 253 254 255 255 256 256 256 256 257 258 259 258 258 258 257 258 260 262 260 257 257 260 263 264 265 267 269 270 268 266 265 266 269 269 269 269 271 273 275 276
256 256 254 254 252 253 253 254 254 255 257 258 259 258 258 257 257 256 256 256 257 258 259 260 260 260 262 264 265 268 268 268 268 267 266 267 267 268 269 271 272 272 274 276
254 252 252 252 251 252 253 255 255 255 255 255 257 258 257 257 256 257 257 257 256 257 259 261 262 261 262 264 265 267 267 266 267 267 266 265 266 269 271 271 272 272 274 276
253 252 252 253 253 253 254 255 256 257 256 255 256 256 257 257 257 258 259 257 259 258 259 261 263 263 262 263 265 266 268 267 265 266 265 265 266 270 272 272 273 275 275 276
251 252 253 253 254 254 254 255 256 256 256 257 257 257 257 257 258 259 258 257 258 260 262 264 265 266 265 263 263 265 268 267 264 264 263 263 266 269 271 273 274 275 275 277
252 253 253 253 253 253 253 254 255 255 256 256 256 256 255 256 257 258 258 258 258 260 262 264 265 266 266 264 262 262 265 265 264 262 261 263 265 268 270 271 273 274 276 275
Height
5852 5856 5858 5861 5863 5865 5867 5868 5869 5870 5869 5870 5871 5872 5872 5873 5873 5874 5875 5875 5876 5876 5875 5875 5875 5875 5874 5874 5873 5872 5872 5871 5870 5869 5869 5869 5868 5868 5867 5866 5866 5866 5865 5865
5848 5851 5854 5855 5858 5860 5861 5863 5864 5865 5865 5866 5866 5867 5868 5868 5869 5870 5871 5872 5872 5872 5872 5872 5872 5872 5872 5871 5871 5870 5869 5869 5868 5867 5867 5866 5866 5865 5865 5864 5863 5863 5862 5862
5843 5847 5848 5850 5852 5855 5856 5859 5860 5860 5860 5861 5862 5863 5864 5864 5865 5866 5867 5867 5868 5868 5869 5869 5869 5869 5868 5868 5868 5867 5866 5866 5865 5865 5864 5864 5863 5862 5861 5861 5860 5860 5859 5859
5837 5840 5842 5845 5847 5849 5851 5853 5855 5855 5856 5857 5858 5859 5860 5860 5861 5861 5862 5863 5864 5864 5865 5865 5865 5865 5865 5865 5864 5864 5863 5863 5862 5862 5861 5861 5860 5859 5858 5857 5857 5856 5856 5856
5832 5835 5837 5840 5842 5844 5846 5848 5850 5850 5851 5852 5852 5854 5856 5855 5856 5857 5858 5858 5859 5859 5860 5860 5861 5861 5861 5861 5861 5860 5860 5859 5859 5859 5858 5857 5856 5856 5855 5854 5854 5853 5853 5853
5827 5829 5832 5834 5836 5839 5840 5843 5844 5845 5847 5847 5848 5849 5851 5851 5851 5852 5852 5853 5854 5854 5855 5856 5856 5856 5856 5857 5856 5856 5856 5856 5855 5855 5854 5854 5853 5852 5852 5851 5851 5850 5850 5850
5822 5824 5826 5828 5830 5833 5835 5838 5840 5841 5842 5843 5843 5844 5846 5845 5846 5846 5847 5847 5848 5849 5850 5851 5851 5852 5852 5852 5852 5852 5852 5852 5851 5851 5850 5850 5849 5849 5848 5848 5847 5847 5847 5846
5818 5820 5821 5823 5825 5827 5830 5833 5836 5838 5839 5840 5837 5838 5840 5840 5840 5840 5841 5841 5842 5843 5844 5845 5846 5846 5847 5847 5847 5847 5847 5847 5847 5846 5846 5845 5845 5845 5844 5844 5843 5843 5843 5842
5813 5815 5815 5817 5820 5822 5824 5826 5830 5831 5832 5834 5833 5832 5833 5834 5834 5835 5835 5836 5836 5837 5838 5839 5840 5840 5841 5842 5842 5842 5842 5842 5842 5842 5841 5841 5841 5840 5840 5840 5839 5839 5839 5838
5807 5809 5810 5812 5814 5816 5819 5821 5823 5824 5826 5827 5828 5827 5828 5828 5829 5829 5829 5829 5830 5831 5832 5833 5834 5834 5835 5836 5836 5836 5836 5836 5836 5836 5835 5836 5835 5835 5835 5835 5835 5834 5834 5833
5801 5803 5805 5806 5808 5810 5812 5814 5816 5818 5820 5821 5823 5825 5821 5822 5823 5823 5823 5823 5824 5825 5826 5827 5828 5828 5829 5830 5830 5830 5830 5830 5830 5830 5830 5830 5830 5830 5830 5830 5829 5829 5828 5828
5795 5797 5799 5801 5802 5804 5806 5808 5810 5812 5813 5814 5816 5820 5815 5816 5816 5816 5817 5817 5817 5818 5819 5820 5821 5822 5823 5823 5824 5824 5824 5824 5824 5825 5825 5824 5824 5825 5824 5824 5824 5823 5823 5822
5789 5791 5793 5795 5798 5798 5799 5800 5803 5805 5806 5807 5809 5812 5808 5809 5810 5810 5810 5810 5811 5812 5813 5814 5815 5816 5816 5817 5817 5817 5818 5818 5818 5818 5818 5818 5818 5818 5818 5818 5818 5817 5816 5816
5782 5784 5788 5790 5791 5791 5792 5794 5796 5798 5799 5800 5802 5803 5803 5802 5803 5803 5804 5804 5805 5806 5807 5807 5808 5809 5810 5810 5810 5811 5811 5811 5812 5812 5812 5812 5812 5812 5812 5812 5811 5811 5810 5809
5776 5778 5779 5782 5783 5784 5786 5788 5789 5791 5792 5794 5795 5795 5796 5796 5797 5797 5797 5798 5799 5800 5800 5801 5801 5802 5803 5803 5804 5804 5804 5804 5804 5805 5805 5805 5805 5805 5805 5805 5804 5804 5803 5802
5769 5771 5773 5775 5776 5778 5779 5781 5782 5783 5785 5786 5786 5788 5788 5789 5790 5790 5791 5792 5792 5793 5793 5794 5795 5795 5796 5796 5797 5797 5797 5797 5798 5798 5798 5798 5797 5797 5797 5797 5797 5796 5796 5795
5762 5764 5766 5768 5769 5770 5772 5774 5775 5776 5777 5778 5779 5781 5781 5782 5783 5784 5784 5785 5786 5786 5787 5787 5788 5788 5788 5789 5789 5790 5790 5790 5790 5790 5790 5790 5790 5790 5790 5790 5789 5788 5788 5787
5756 5757 5759 5761 5762 5764 5767 5766 5767 5768 5769 5770 5771 5772 5774 5775 5776 5777 5777 5778 5779 5779 5780 5780 5780 5781 5781 5782 5782 5782 5783 5783 5783 5783 5783 5782 5782 5782 5782 5782 5781 5781 5780 5779
5748 5750 5751 5753 5754 5756 5758 5758 5760 5761 5761 5762 5763 5764 5766 5767 5768 5769 5770 5771 5771 5772 5772 5773 5773 5774 5774 5774 5775 5775 5775 5775 5775 5775 5775 5774 5774 5774 5774 5774 5774 5773 5772 5772
5741 5742 5745 5746 5747 5749 5751 5751 5751 5754 5754 5755 5756 5757 5758 5759 5761 5762 5762 5763 5764 5764 5765 5765 5766 5766 5767 5767 5767 5767 5767 5767 5766 5766 5766 5767 5767 5766 5766 5766 5766 5765 5764 5764
5734 5735 5737 5738 5740 5741 5742 5743 5745 5747 5748 5748 5748 5749 5750 5752 5753 5754 5755 5755 5756 5757 5757 5758 5759 5759 5760 5760 5760 5760 5759 5759 5758 5758 5759 5759 5759 5759 5759 5758 5758 5757 5757 5756
5727 5728 5730 5731 5733 5736 5734 5736 5738 5739 5739 5740 5741 5742 5743 5744 5745 5746 5747 5748 5749 5750 5750 5751 5751 5752 5753 5753 5753 5753 5752 5751 5751 5751 5751 5752 5752 5751 5751 5750 5750 5749 5749 5748
5720 5722 5723 5725 5727 5726 5727 5728 5729 5730 5731 5732 5733 5734 5735 5736 5738 5739 5740 5740 5741 5742 5743 5743 5744 5745 5745 5745 5745 5745 5745 5745 5744 5744 5744 5744 5744 5744 5743 5743 5742 5742 5741 5740
5713 5714 5715 5716 5718 5719 5720 5721 5721 5722 5723 5724 5725 5726 5728 5729 5730 5731 5732 5733 5734 5735 5736 5736 5737 5737 5737 5737 5738 5738 5738 5737 5737 5737 5737 5737 5737 5737 5736 5735 5735 5734 5733 5732
5706 5707 5708 5709 5710 5711 5712 5713 5714 5715 5715 5716 5717 5719 5720 5721 5722 5723 5724 5725 5726 5727 5728 5729 5729 5729 5730 5730 5730 5730 5730 5730 5730 5730 5730 5730 5730 5729 5729 5728 5728 5727 5726 5725
5699 5700 5701 5702 5703 5704 5705 5706 5706 5707 5708 5709 5710 5711 5712 5713 5714 5715 5716 5717 5719 5720 5720 5721 5721 5722 5722 5722 5722 5723 5723 5723 5723 5723 5723 5723 5722 5722 5721 5721 5720 5719 5719 5717